Theta_e
312 313 313 315 331 336 333 331 327 324 321 320 320 318 319 320 323 324 324 328 332 331 330 329 329 328 327 327 326 325 324 324 324 324 323 323 323 323 323 323 324 324 324
312 311 312 314 314 321 333 330 327 324 320 320 319 319 319 320 322 322 322 325 329 331 330 329 328 328 327 326 326 325 324 324 324 323 323 323 322 322 322 322 323 323 323
310 310 313 312 313 317 321 330 327 326 320 319 318 318 319 320 322 322 322 322 324 327 329 328 328 326 326 326 325 324 324 323 323 322 322 322 321 321 321 322 322 322 322
312 313 311 310 314 313 316 329 326 324 318 317 315 316 317 319 320 320 321 320 320 321 326 329 327 326 325 325 325 324 323 322 321 321 321 321 320 320 321 321 321 321 321
308 306 308 309 312 313 314 325 326 323 320 316 315 315 316 316 318 319 319 319 319 319 320 325 325 325 325 324 325 325 323 321 320 320 319 319 319 319 320 320 320 321 321
308 308 310 312 313 311 312 313 324 322 320 319 317 315 314 315 316 318 315 318 318 318 319 319 319 320 323 323 324 324 323 321 320 319 318 317 317 318 319 319 320 320 320
302 304 307 307 309 310 310 313 315 321 319 319 312 306 307 310 313 316 317 313 315 317 317 317 317 316 317 322 323 324 323 322 320 318 317 316 316 317 318 318 319 319 320
300 300 304 304 306 309 310 311 311 320 319 319 313 303 304 308 310 310 313 316 312 313 316 316 316 314 314 313 315 324 323 322 321 319 317 316 315 316 317 318 318 319 319
298 299 300 302 306 308 309 310 311 311 316 317 314 307 301 300 303 307 308 312 312 310 311 314 315 314 313 313 317 319 321 322 321 319 317 315 314 314 316 317 318 318 318
295 298 301 301 303 307 308 310 312 311 318 314 313 312 309 306 300 298 304 307 309 311 309 310 311 312 312 311 313 312 316 317 320 320 318 315 314 314 315 316 317 318 318
293 296 298 299 299 301 306 310 310 311 316 316 312 310 309 308 305 300 295 304 305 310 309 309 310 310 311 311 310 311 315 318 319 318 317 316 315 315 315 316 317 317 317
290 292 294 295 296 297 299 302 309 312 312 318 316 313 311 308 305 303 299 301 303 304 306 308 308 308 309 309 311 311 314 317 318 317 316 314 313 315 315 316 316 316 315
286 289 290 292 294 296 297 298 302 308 312 317 316 316 314 312 310 307 303 300 299 301 304 306 307 308 310 308 308 309 311 314 316 316 314 314 313 314 314 314 314 314 312
285 288 289 290 291 293 295 297 300 303 311 316 316 316 316 313 311 307 305 301 298 298 299 300 308 308 308 307 308 308 308 312 314 315 315 313 314 311 310 310 310 309 309
286 287 288 288 289 291 292 294 297 300 306 314 317 316 316 314 308 307 308 307 304 297 298 299 300 306 305 304 305 306 303 308 312 313 314 312 311 308 307 307 306 306 307
284 284 285 287 288 289 290 292 294 298 301 312 317 316 316 314 307 304 306 308 307 303 297 298 296 301 304 304 302 301 301 304 308 310 310 309 308 307 306 305 305 305 305
282 283 284 285 286 287 289 289 292 294 297 300 315 315 315 313 307 304 303 305 304 305 299 294 295 295 299 298 299 297 298 298 300 307 308 308 307 307 306 306 304 304 304
281 282 283 283 285 286 287 288 289 292 294 297 307 313 313 310 305 304 302 301 301 304 298 292 293 292 294 296 296 295 297 298 296 303 307 307 307 306 306 305 303 302 302
280 280 281 282 283 285 286 287 288 290 292 294 297 312 313 310 305 303 301 300 299 296 298 294 292 293 292 293 294 295 294 295 297 301 305 306 306 305 304 302 302 301 298
278 279 280 281 282 284 286 287 288 289 291 293 297 298 313 307 306 302 301 301 298 296 295 293 291 290 291 293 294 292 292 294 293 296 299 300 302 303 302 302 300 297 294
277 278 279 280 282 283 285 286 287 288 290 291 294 297 311 308 304 303 303 300 298 296 294 292 291 290 289 291 291 293 293 293 294 293 292 292 292 291 293 298 296 294 294
276 277 278 279 279 282 285 287 288 287 289 290 291 294 300 304 303 304 303 302 301 298 295 293 292 291 290 291 292 293 292 290 289 294 291 288 291 289 290 289 294 293 293
274 275 276 277 278 280 284 286 288 287 288 289 290 292 295 309 305 306 304 303 302 302 303 301 296 294 292 293 294 293 292 291 290 292 288 282 287 287 287 290 292 293 292
273 274 275 276 277 279 284 285 287 286 287 288 289 292 294 297 308 308 306 304 305 304 304 305 305 300 296 295 295 295 294 289 288 288 286 283 284 284 285 286 292 292 290
272 273 275 276 276 278 282 284 285 285 286 287 290 291 294 295 307 305 306 305 305 305 305 304 303 301 299 298 297 294 289 288 283 284 284 283 283 283 285 285 286 290 288
273 274 275 276 278 278 281 284 285 285 285 287 289 291 295 297 302 304 307 305 303 303 303 301 299 299 299 299 297 296 292 289 285 285 285 283 282 283 280 283 283 284 284
Wind_Speed
6 8 10 11 10 9 9 9 6 6 6 7 6 5 3 2 8 5 4 9 11 11 12 12 11 11 11 11 11 10 9 9 9 9 9 9 10 10 10 11 11 12 12
5 5 7 9 11 10 8 9 9 8 5 6 6 5 4 2 8 7 4 4 9 10 11 11 11 11 11 10 10 10 9 8 8 8 8 9 9 8 9 10 10 11 12
5 5 3 7 9 11 15 11 9 8 5 5 5 4 3 4 6 8 5 4 5 7 9 11 10 10 10 10 10 9 8 7 7 7 7 7 7 7 8 9 9 10 11
6 4 5 7 8 10 11 8 11 9 6 6 4 4 4 4 6 6 5 4 4 3 5 10 9 10 10 10 10 9 8 7 6 6 6 6 6 7 7 8 8 9 10
8 8 5 6 9 9 9 8 11 11 10 6 6 5 4 4 5 6 6 5 5 5 3 7 8 8 10 9 9 9 9 8 6 5 4 4 4 5 6 7 8 9 11
10 8 5 2 4 8 9 9 7 10 11 9 7 5 3 3 5 7 6 5 5 6 4 5 4 4 8 10 9 9 8 7 6 5 4 3 3 3 5 6 8 9 10
13 11 8 8 10 8 9 12 13 14 9 9 6 4 4 4 3 4 7 5 6 5 5 5 4 3 4 11 11 10 9 9 7 6 4 2 1 3 4 6 7 9 10
10 10 10 8 7 7 8 9 10 6 8 12 9 4 3 3 3 3 1 7 7 5 6 6 6 5 5 4 4 9 10 10 9 7 5 3 1 2 3 5 7 8 10
7 9 10 9 10 8 7 7 9 13 10 10 17 8 5 6 4 1 3 2 7 5 5 7 7 6 6 6 7 7 8 8 10 8 7 5 3 2 3 5 7 9 10
9 9 9 10 9 7 10 6 6 8 11 14 10 4 5 8 5 1 3 3 3 6 7 5 6 6 6 5 7 10 10 7 11 10 8 7 5 4 5 5 7 9 11
8 9 8 9 10 9 11 9 7 8 10 8 12 9 3 3 4 5 4 9 3 5 5 5 6 5 6 5 5 6 12 12 13 11 10 8 7 7 6 6 7 8 10
7 9 11 9 9 9 10 12 11 8 11 8 8 10 10 7 6 5 4 8 10 5 4 5 6 6 5 5 6 10 13 14 15 14 12 10 8 8 7 6 7 8 10
6 9 12 11 9 10 10 13 11 11 9 9 7 7 8 9 6 4 5 4 4 3 6 5 5 6 7 6 6 9 14 15 15 16 14 12 9 7 6 6 6 8 10
8 9 10 11 12 11 11 12 10 9 11 10 13 10 7 7 4 5 6 8 3 2 3 4 7 6 8 7 9 13 8 15 15 16 15 12 7 4 3 3 7 7 9
9 10 11 11 11 12 12 13 9 12 13 11 12 13 8 7 4 4 3 8 8 5 9 6 4 7 7 8 9 8 7 12 14 14 13 10 4 4 2 4 7 7 9
11 12 12 12 11 11 12 13 11 12 13 12 9 13 13 7 5 3 4 5 3 5 3 3 3 4 7 7 9 8 8 11 14 15 13 10 7 5 6 6 5 6 7
11 12 12 12 13 12 12 12 14 14 16 17 12 11 13 11 9 7 3 3 3 4 5 1 2 1 4 6 6 6 6 5 6 14 13 11 10 9 7 5 4 5 6
12 12 12 13 12 13 12 12 14 13 15 17 18 13 14 8 12 11 7 4 4 3 5 5 3 2 2 4 6 6 5 5 5 10 11 11 10 9 6 4 3 3 4
12 12 12 12 13 12 13 12 13 15 15 15 15 15 12 13 14 11 11 10 3 3 1 5 5 2 2 2 4 3 3 3 4 8 12 10 9 9 7 4 3 0 5
12 13 12 13 13 14 14 12 13 14 15 14 17 19 14 15 16 15 14 15 9 4 2 5 4 4 3 2 3 4 4 3 3 2 5 6 7 7 6 5 2 4 4
11 12 13 13 13 12 10 13 13 14 15 16 16 17 18 17 23 21 13 14 13 10 5 4 3 4 4 4 7 4 4 4 2 3 3 3 3 2 3 5 6 6 4
12 12 13 13 13 10 21 24 21 14 14 15 15 17 20 18 22 25 27 26 24 18 13 5 4 5 6 5 5 7 5 4 5 5 4 2 3 2 3 4 8 7 6
11 12 13 13 13 13 22 25 25 15 14 15 15 15 17 14 19 19 25 26 28 29 29 18 14 9 8 10 12 9 5 3 2 4 6 2 1 3 2 4 8 8 7
11 11 12 13 14 12 23 25 26 17 15 16 16 16 18 22 17 18 17 19 20 22 21 15 17 14 9 14 15 9 8 6 4 4 3 4 2 2 2 2 7 8 5
11 12 12 14 15 14 24 26 23 15 15 17 15 16 17 19 20 26 18 18 19 17 20 24 16 10 14 18 14 11 6 6 3 3 2 4 4 3 2 2 2 5 3
12 11 13 14 19 16 23 26 23 11 14 13 14 15 23 22 31 28 21 19 18 16 14 12 8 11 16 16 24 13 12 11 5 2 5 5 3 4 3 0 2 1 3
Wind_Direction
23 345 356 339 310 177 171 165 160 170 178 156 182 226 183 165 115 122 118 137 142 142 143 141 136 131 130 123 121 116 107 102 97 86 83 72 64 57 48 43 38 35 33
12 6 349 334 335 333 190 169 165 172 179 150 174 187 186 158 117 119 123 135 146 141 150 145 147 142 140 137 126 124 118 110 101 94 86 76 65 56 50 46 39 32 28
344 341 342 353 320 321 317 163 160 170 149 143 158 158 157 121 119 125 129 145 148 146 150 153 152 154 149 142 140 132 126 117 107 99 86 79 70 58 47 42 38 32 24
320 335 10 318 327 331 338 198 163 165 147 147 155 161 142 125 136 125 129 143 159 149 158 150 160 165 160 158 152 143 138 130 120 106 91 76 62 48 41 37 31 28 23
354 325 311 311 351 300 332 308 163 163 159 150 153 155 155 146 139 132 148 156 164 174 154 149 165 172 177 171 165 157 154 146 135 118 96 75 58 46 36 30 23 18 18
335 308 296 338 282 346 335 343 245 161 160 157 145 132 120 159 149 152 161 168 171 180 158 153 149 160 184 188 182 172 164 159 150 140 124 93 54 32 29 22 18 11 10
342 333 337 355 343 322 330 322 316 159 157 153 104 76 32 33 3 145 160 153 163 185 190 187 184 183 199 201 199 185 178 173 168 163 155 146 80 21 16 15 10 6 3
333 325 321 310 293 299 306 321 342 253 166 168 150 101 103 338 330 348 76 170 179 174 190 204 194 202 193 192 212 197 193 186 182 179 176 179 203 352 359 3 1 1 358
324 322 318 310 309 316 293 329 323 331 180 176 163 139 143 208 125 290 281 202 164 176 184 203 192 212 191 179 191 189 194 204 194 189 189 197 216 283 320 343 349 351 352
314 329 312 318 312 293 297 287 305 318 275 167 192 175 158 144 164 183 265 252 234 185 184 198 189 206 191 173 173 170 177 188 205 199 197 209 230 258 292 318 335 346 345
331 314 324 334 338 331 321 289 292 298 302 222 184 188 161 151 138 139 180 204 262 209 195 185 189 195 198 184 178 183 182 184 197 202 210 222 239 259 281 311 327 340 337
328 326 335 336 325 326 327 315 310 286 314 231 232 229 182 165 185 152 127 182 208 231 209 206 191 188 187 192 187 178 178 189 204 213 222 232 246 263 286 305 318 333 337
327 332 328 324 323 327 321 311 309 307 288 252 225 235 237 210 167 149 116 162 158 208 210 227 202 185 188 186 191 176 184 192 203 214 224 232 239 253 277 307 318 323 333
316 319 315 326 318 316 312 305 306 294 281 276 228 218 220 242 256 171 144 143 131 159 179 212 205 192 190 183 190 179 190 192 203 214 223 234 238 97 113 286 303 324 326
313 318 320 315 311 309 308 304 303 295 287 269 255 227 220 205 225 275 183 162 144 170 209 218 176 194 179 178 186 185 180 194 200 214 219 229 193 154 222 272 297 327 331
318 317 316 313 314 310 308 307 299 293 289 276 235 219 214 193 183 223 239 190 165 140 156 173 196 167 174 186 179 175 182 173 199 213 209 206 199 202 231 261 299 312 320
315 312 313 310 309 306 305 303 297 297 293 297 239 224 220 191 185 194 232 244 203 154 128 138 116 136 149 156 164 163 168 174 191 206 204 194 195 207 221 249 281 309 334
310 310 310 309 305 302 298 299 297 295 291 287 288 215 211 182 186 188 193 206 257 260 130 136 143 116 146 155 149 154 174 177 179 200 199 192 195 197 205 224 259 289 344
309 309 306 303 303 299 297 292 291 289 291 294 289 256 208 195 188 184 185 192 132 272 212 136 138 142 126 135 131 148 172 162 185 183 188 196 197 197 200 209 230 325 51
305 303 303 301 298 296 293 292 290 288 284 279 285 302 209 187 193 188 187 192 186 180 249 143 114 131 134 152 127 151 174 139 139 141 157 171 197 209 186 173 167 103 83
298 300 302 299 297 294 292 295 291 291 291 297 297 282 245 196 196 192 186 186 177 176 174 183 155 127 151 146 183 168 152 140 148 163 162 167 147 153 175 156 140 129 117
299 300 298 295 296 294 298 298 295 290 295 288 287 291 295 198 200 194 197 190 189 183 191 167 174 170 162 147 140 174 136 141 200 190 119 181 122 170 136 138 143 138 118
296 297 296 297 295 294 297 298 296 289 284 281 282 284 281 246 198 196 202 197 196 198 200 194 191 186 167 159 151 169 165 160 177 158 97 140 139 143 160 125 139 142 98
293 294 294 295 294 294 298 300 298 291 281 281 277 268 275 282 202 200 200 203 208 206 209 208 207 202 167 156 165 165 160 114 82 48 100 137 178 157 121 119 148 125 110
294 293 292 295 295 295 298 298 297 290 283 281 275 271 273 270 228 193 199 202 205 205 206 204 210 173 138 144 146 127 151 126 104 207 184 124 185 119 118 140 150 144 117
290 294 294 292 292 296 297 297 295 284 280 281 277 274 271 258 271 191 199 202 198 196 183 182 180 174 170 173 167 175 160 161 146 97 210 119 141 150 72 14 137 148 81